| time (UTC) | temp F | wind direction | speed knots | gust knots | rain 1hr in | rain 24hr in | rain mn in | humidity % | barometer mb |
| 20260504070236 | 56 | 169 | 4.3 | 5.2 | 0.00 | 0.00 | 0.00 | 56 | 1005.9 |
| 20260504060235 | 57 | 169 | 2.6 | 4.3 | 0.00 | 0.00 | 0.00 | 56 | 1006.7 |
| 20260504050745 | 60 | 169 | 3.5 | 5.2 | 0.00 | 0.00 | 0.00 | 50 | 1007.5 |
| 20260504050226 | 60 | 175 | 4.3 | 5.2 | 0.00 | 0.00 | 0.00 | 50 | 1007.5 |
| 20260504050012 | 60 | 170 | 3.5 | 5.2 | 0.00 | 0.00 | 0.00 | 50 | 1006.5 |
| 20260504045738 | 61 | 177 | 4.3 | 5.2 | 0.00 | 0.00 | 0.00 | 50 | 1007.6 |
| 20260504045222 | 61 | 171 | 4.3 | 6.1 | 0.00 | 0.00 | 0.00 | 50 | 1007.6 |
| 20260504044749 | 62 | 173 | 4.3 | 5.2 | 0.00 | 0.00 | 0.00 | 51 | 1007.6 |
| 20260504044514 | 61 | 158 | 3.5 | 5.2 | 0.00 | 0.00 | 0.00 | 51 | 1006.7 |
| 20260504044235 | 62 | 174 | 3.5 | 5.2 | 0.00 | 0.00 | 0.00 | 51 | 1007.7 |
| 20260504043805 | 63 | 165 | 3.5 | 4.3 | 0.00 | 0.00 | 0.00 | 50 | 1007.7 |
| 20260504043226 | 63 | 163 | 3.5 | 4.3 | 0.00 | 0.00 | 0.00 | 49 | 1007.8 |
| 20260504043106 | 62 | 178 | 2.6 | 4.3 | 0.00 | 0.00 | 0.00 | 49 | 1007.0 |
| 20260504042739 | 63 | 175 | 2.6 | 4.3 | 0.00 | 0.00 | 0.00 | 48 | 1007.9 |
| 20260504042221 | 64 | 173 | 4.3 | 5.2 | 0.00 | 0.00 | 0.00 | 46 | 1007.8 |
| 20260504041734 | 64 | 178 | 2.6 | 4.3 | 0.00 | 0.00 | 0.00 | 44 | 1007.9 |
| 20260504041554 | 63 | 184 | 2.6 | 5.2 | 0.00 | 0.00 | 0.00 | 44 | 1007.0 |
| 20260504041243 | 64 | 173 | 2.6 | 5.2 | 0.00 | 0.00 | 0.00 | 43 | 1008.0 |
| 20260504040724 | 64 | 188 | 3.5 | 5.2 | 0.00 | 0.00 | 0.00 | 42 | 1007.9 |
| 20260504040256 | 65 | 179 | 2.6 | 4.3 | 0.00 | 0.00 | 0.00 | 40 | 1008.0 |
| 20260504040040 | 64 | 178 | 2.6 | 3.5 | 0.00 | 0.00 | 0.00 | 40 | 1007.1 |
| 20260504035745 | 65 | 178 | 1.7 | 3.5 | 0.00 | 0.00 | 0.00 | 39 | 1008.1 |
| 20260504035228 | 65 | 178 | 1.7 | 2.6 | 0.00 | 0.00 | 0.00 | 39 | 1008.2 |
| 20260504034759 | 65 | 178 | 1.7 | 2.6 | 0.00 | 0.00 | 0.00 | 40 | 1008.1 |
| 20260504034522 | 65 | 178 | 0.9 | 2.6 | 0.00 | 0.00 | 0.00 | 40 | 1007.1 |
| 20260504034250 | 65 | 178 | 1.7 | 2.6 | 0.00 | 0.00 | 0.00 | 40 | 1008.2 |
| 20260504033727 | 65 | 178 | 2.6 | 3.5 | 0.00 | 0.00 | 0.00 | 40 | 1008.3 |
| 20260504033241 | 66 | 178 | 2.6 | 3.5 | 0.00 | 0.00 | 0.00 | 40 | 1008.3 |
| 20260504033037 | 65 | 178 | 2.6 | 3.5 | 0.00 | 0.00 | 0.00 | 40 | 1007.3 |
| 20260504032810 | 66 | 178 | 2.6 | 3.5 | 0.00 | 0.00 | 0.00 | 40 | 1008.3 |
| 20260504032232 | 66 | 182 | 2.6 | 3.5 | 0.00 | 0.00 | 0.00 | 39 | 1008.3 |
| 20260504031741 | 66 | 194 | 2.6 | 2.6 | 0.00 | 0.00 | 0.00 | 38 | 1008.4 |
| 20260504031512 | 65 | 194 | 0.9 | 2.6 | 0.00 | 0.00 | 0.00 | 38 | 1007.4 |
| 20260504031225 | 66 | 194 | 1.7 | 2.6 | 0.00 | 0.00 | 0.00 | 38 | 1008.3 |
| 20260504030736 | 66 | 194 | 1.7 | 1.7 | 0.00 | 0.00 | 0.00 | 38 | 1008.4 |
| 20260504030243 | 66 | 194 | 1.7 | 2.6 | 0.00 | 0.00 | 0.00 | 40 | 1008.4 |
| 20260504030018 | 65 | 194 | 0.9 | 2.6 | 0.00 | 0.00 | 0.00 | 40 | 1007.5 |
| 20260504025727 | 66 | 194 | 1.7 | 2.6 | 0.00 | 0.00 | 0.00 | 40 | 1008.5 |
| 20260504025239 | 66 | 194 | 1.7 | 2.6 | 0.00 | 0.00 | 0.00 | 41 | 1008.4 |
| 20260504024723 | 66 | 194 | 1.7 | 2.6 | 0.00 | 0.00 | 0.00 | 41 | 1008.5 |
| 20260504024525 | 65 | 194 | 1.7 | 2.6 | 0.00 | 0.00 | 0.00 | 41 | 1007.6 |
| 20260504024236 | 66 | 194 | 1.7 | 2.6 | 0.00 | 0.00 | 0.00 | 41 | 1008.5 |
| 20260504023745 | 66 | 194 | 1.7 | 2.6 | 0.00 | 0.00 | 0.00 | 41 | 1008.6 |
| 20260504023237 | 66 | 194 | 1.7 | 2.6 | 0.00 | 0.00 | 0.00 | 40 | 1008.6 |
| 20260504023008 | 65 | 194 | 1.7 | 2.6 | 0.00 | 0.00 | 0.00 | 40 | 1007.7 |
| 20260504022749 | 66 | 194 | 1.7 | 2.6 | 0.00 | 0.00 | 0.00 | 40 | 1008.6 |
| 20260504022228 | 66 | 194 | 1.7 | 3.5 | 0.00 | 0.00 | 0.00 | 40 | 1008.7 |
| 20260504021759 | 66 | 194 | 1.7 | 3.5 | 0.00 | 0.00 | 0.00 | 40 | 1008.7 |
| 20260504021554 | 66 | 194 | 1.7 | 3.5 | 0.00 | 0.00 | 0.00 | 40 | 1007.8 |
| 20260504021251 | 67 | 194 | 2.6 | 3.5 | 0.00 | 0.00 | 0.00 | 40 | 1008.7 |
| 20260504020730 | 67 | 194 | 1.7 | 3.5 | 0.00 | 0.00 | 0.00 | 40 | 1008.8 |
| 20260504020243 | 67 | 194 | 2.6 | 4.3 | 0.00 | 0.00 | 0.00 | 40 | 1008.8 |
| 20260504020049 | 66 | 194 | 1.7 | 4.3 | 0.00 | 0.00 | 0.00 | 40 | 1007.9 |
| 20260504015726 | 67 | 194 | 2.6 | 4.3 | 0.00 | 0.00 | 0.00 | 40 | 1008.9 |
| 20260504015238 | 67 | 194 | 1.7 | 2.6 | 0.00 | 0.00 | 0.00 | 39 | 1008.9 |
| 20260504014722 | 68 | 194 | 1.7 | 3.5 | 0.00 | 0.00 | 0.00 | 39 | 1008.8 |
| 20260504014603 | 67 | 194 | 1.7 | 3.5 | 0.00 | 0.00 | 0.00 | 38 | 1007.9 |
| 20260504014502 | 67 | 194 | 1.7 | 4.3 | 0.00 | 0.00 | 0.00 | 38 | 1007.9 |
| 20260504014232 | 68 | 202 | 2.6 | 4.3 | 0.00 | 0.00 | 0.00 | 38 | 1008.8 |
| 20260504013741 | 69 | 194 | 2.6 | 4.3 | 0.00 | 0.00 | 0.00 | 37 | 1008.8 |
| 20260504013224 | 69 | 202 | 2.6 | 3.5 | 0.00 | 0.00 | 0.00 | 36 | 1008.8 |
| 20260504013015 | 69 | 172 | 2.6 | 4.3 | 0.00 | 0.00 | 0.00 | 36 | 1007.9 |
| 20260504012734 | 69 | 172 | 2.6 | 3.5 | 0.00 | 0.00 | 0.00 | 36 | 1008.8 |
| 20260504012247 | 70 | 172 | 1.7 | 4.3 | 0.00 | 0.00 | 0.00 | 36 | 1008.8 |
| 20260504011731 | 70 | 172 | 2.6 | 3.5 | 0.00 | 0.00 | 0.00 | 36 | 1008.8 |
| 20260504011512 | 70 | 172 | 1.7 | 4.3 | 0.00 | 0.00 | 0.00 | 36 | 1008.0 |
| 20260504011245 | 70 | 172 | 2.6 | 4.3 | 0.00 | 0.00 | 0.00 | 35 | 1008.9 |
| 20260504010727 | 71 | 198 | 2.6 | 4.3 | 0.00 | 0.00 | 0.00 | 35 | 1008.9 |
| 20260504010235 | 71 | 196 | 2.6 | 5.2 | 0.00 | 0.00 | 0.00 | 35 | 1009.0 |
| 20260504010013 | 71 | 201 | 2.6 | 5.2 | 0.00 | 0.00 | 0.00 | 34 | 1008.1 |
| 20260504005748 | 71 | 198 | 2.6 | 6.1 | 0.00 | 0.00 | 0.00 | 35 | 1009.0 |
| 20260504005231 | 71 | 203 | 3.5 | 6.1 | 0.00 | 0.00 | 0.00 | 35 | 1009.1 |
| 20260504004744 | 72 | 213 | 4.3 | 7.8 | 0.00 | 0.00 | 0.00 | 34 | 1009.1 |
| 20260504004517 | 71 | 225 | 3.5 | 7.8 | 0.00 | 0.00 | 0.00 | 34 | 1008.3 |
| 20260504004227 | 72 | 219 | 4.3 | 7.8 | 0.00 | 0.00 | 0.00 | 35 | 1009.2 |
| 20260504003738 | 72 | 202 | 4.3 | 7.0 | 0.00 | 0.00 | 0.00 | 34 | 1009.3 |
| 20260504003222 | 72 | 201 | 4.3 | 7.0 | 0.00 | 0.00 | 0.00 | 34 | 1009.2 |
| 20260504003021 | 72 | 211 | 4.3 | 7.0 | 0.00 | 0.00 | 0.00 | 34 | 1008.3 |
| 20260504002732 | 73 | 206 | 4.3 | 8.7 | 0.00 | 0.00 | 0.00 | 33 | 1009.3 |
| 20260504002240 | 73 | 225 | 4.3 | 10.4 | 0.00 | 0.00 | 0.00 | 33 | 1009.3 |
| 20260504001723 | 73 | 211 | 6.1 | 10.4 | 0.00 | 0.00 | 0.00 | 33 | 1009.3 |
| 20260504001526 | 73 | 214 | 6.1 | 10.4 | 0.00 | 0.00 | 0.00 | 32 | 1008.5 |
| 20260504001237 | 74 | 207 | 7.0 | 10.4 | 0.00 | 0.00 | 0.00 | 33 | 1009.4 |
| 20260504000748 | 74 | 180 | 6.1 | 8.7 | 0.00 | 0.00 | 0.00 | 32 | 1009.5 |
| 20260504000230 | 74 | 180 | 6.1 | 8.7 | 0.00 | 0.00 | 0.00 | 32 | 1009.5 |
| 20260504000040 | 73 | 189 | 5.2 | 8.7 | 0.00 | 0.00 | 0.00 | 32 | 1008.6 |
| 20260503235743 | 74 | 182 | 6.1 | 8.7 | 0.00 | 0.00 | 0.00 | 31 | 1009.5 |
| 20260503235227 | 74 | 212 | 5.2 | 8.7 | 0.00 | 0.00 | 0.00 | 31 | 1009.5 |
| 20260503234757 | 74 | 184 | 5.2 | 9.6 | 0.00 | 0.00 | 0.00 | 32 | 1009.4 |
| 20260503234511 | 74 | 201 | 6.1 | 9.6 | 0.00 | 0.00 | 0.00 | 32 | 1008.5 |
| 20260503234247 | 74 | 172 | 6.1 | 9.6 | 0.00 | 0.00 | 0.00 | 32 | 1009.5 |
| 20260503233729 | 74 | 178 | 7.0 | 9.6 | 0.00 | 0.00 | 0.00 | 32 | 1009.6 |
| 20260503233241 | 74 | 192 | 7.8 | 9.6 | 0.00 | 0.00 | 0.00 | 32 | 1009.5 |
| 20260503233016 | 74 | 211 | 7.0 | 9.6 | 0.00 | 0.00 | 0.00 | 33 | 1008.7 |
| 20260503232725 | 75 | 208 | 6.1 | 9.6 | 0.00 | 0.00 | 0.00 | 32 | 1009.6 |
| 20260503232238 | 74 | 207 | 5.2 | 7.8 | 0.00 | 0.00 | 0.00 | 32 | 1009.7 |
| 20260503231722 | 74 | 201 | 3.5 | 7.0 | 0.00 | 0.00 | 0.00 | 33 | 1009.7 |
| 20260503231523 | 74 | 219 | 3.5 | 7.8 | 0.00 | 0.00 | 0.00 | 33 | 1008.7 |
| 20260503231235 | 74 | 209 | 5.2 | 8.7 | 0.00 | 0.00 | 0.00 | 32 | 1009.6 |
| 20260503230740 | 75 | 215 | 6.1 | 13.0 | 0.00 | 0.00 | 0.00 | 31 | 1009.7 |
| 20260503230224 | 74 | 211 | 7.8 | 13.0 | 0.00 | 0.00 | 0.00 | 33 | 1009.6 |
| 20260503230023 | 74 | 194 | 6.1 | 10.4 | 0.00 | 0.00 | 0.00 | 32 | 1008.7 |
| 20260503225755 | 75 | 203 | 4.3 | 7.8 | 0.00 | 0.00 | 0.00 | 32 | 1009.6 |
| 20260503225247 | 75 | 234 | 4.3 | 7.8 | 0.00 | 0.00 | 0.00 | 33 | 1009.7 |
| 20260503224731 | 75 | 252 | 6.1 | 8.7 | 0.00 | 0.00 | 0.00 | 33 | 1009.7 |
| 20260503224513 | 74 | 229 | 2.6 | 6.1 | 0.00 | 0.00 | 0.00 | 32 | 1008.7 |
| 20260503224244 | 75 | 226 | 0.9 | 5.2 | 0.00 | 0.00 | 0.00 | 32 | 1009.6 |
| 20260503223734 | 76 | 226 | 3.5 | 12.2 | 0.00 | 0.00 | 0.00 | 30 | 1009.7 |
| 20260503223243 | 76 | 223 | 6.1 | 12.2 | 0.00 | 0.00 | 0.00 | 31 | 1009.8 |
| 20260503223053 | 76 | 242 | 7.0 | 12.2 | 0.00 | 0.00 | 0.00 | 31 | 1008.9 |
| 20260503222725 | 77 | 282 | 2.6 | 7.8 | 0.00 | 0.00 | 0.00 | 31 | 1009.8 |
| 20260503222237 | 77 | 296 | 2.6 | 7.8 | 0.00 | 0.00 | 0.00 | 33 | 1009.8 |
| 20260503221722 | 76 | 66 | 0.9 | 7.0 | 0.00 | 0.00 | 0.00 | 31 | 1009.8 |
| 20260503221507 | 76 | 10 | 0.9 | 7.8 | 0.00 | 0.00 | 0.00 | 32 | 1008.9 |
| 20260503221257 | 76 | 57 | 1.7 | 9.6 | 0.00 | 0.00 | 0.00 | 33 | 1009.8 |
| 20260503220746 | 76 | 45 | 3.5 | 9.6 | 0.00 | 0.00 | 0.00 | 33 | 1009.8 |
| 20260503220230 | 77 | 284 | 2.6 | 8.7 | 0.00 | 0.00 | 0.00 | 29 | 1009.9 |
| 20260503220100 | 76 | 346 | 3.5 | 8.7 | 0.00 | 0.00 | 0.00 | 33 | 1009.0 |
| 20260503215743 | 76 | 240 | 6.1 | 11.3 | 0.00 | 0.00 | 0.00 | 31 | 1009.8 |
| 20260503215221 | 77 | 288 | 7.0 | 13.9 | 0.00 | 0.00 | 0.00 | 32 | 1010.0 |
| 20260503214734 | 77 | 271 | 7.8 | 13.9 | 0.00 | 0.00 | 0.00 | 31 | 1010.2 |
| 20260503214558 | 76 | 257 | 6.1 | 13.9 | 0.00 | 0.00 | 0.00 | 33 | 1009.3 |
| 20260503214247 | 76 | 288 | 7.8 | 13.9 | 0.00 | 0.00 | 0.00 | 34 | 1010.1 |
| 20260503213729 | 76 | 281 | 0.9 | 5.2 | 0.00 | 0.00 | 0.00 | 31 | 1010.3 |
| 20260503213243 | 75 | 311 | 2.6 | 5.2 | 0.00 | 0.00 | 0.00 | 36 | 1010.3 |
| 20260503213053 | 74 | 321 | 2.6 | 7.0 | 0.00 | 0.00 | 0.00 | 32 | 1009.5 |
| 20260503212726 | 75 | 229 | 2.6 | 7.0 | 0.00 | 0.00 | 0.00 | 31 | 1010.3 |
| 20260503212237 | 76 | 261 | 3.5 | 9.6 | 0.00 | 0.00 | 0.00 | 32 | 1010.5 |
| 20260503211723 | 77 | 341 | 6.1 | 11.3 | 0.00 | 0.00 | 0.00 | 32 | 1010.6 |
| 20260503211554 | 76 | 340 | 4.3 | 11.3 | 0.00 | 0.00 | 0.00 | 34 | 1009.8 |
| 20260503211252 | 77 | 298 | 7.8 | 11.3 | 0.00 | 0.00 | 0.00 | 33 | 1010.7 |
| 20260503210733 | 77 | 279 | 2.6 | 11.3 | 0.00 | 0.00 | 0.00 | 33 | 1010.8 |
| 20260503210244 | 76 | 322 | 3.5 | 10.4 | 0.00 | 0.00 | 0.00 | 33 | 1010.7 |
| 20260503210057 | 76 | 311 | 2.6 | 10.4 | 0.00 | 0.00 | 0.00 | 35 | 1009.9 |
| 20260503205726 | 76 | 355 | 7.0 | 11.3 | 0.00 | 0.00 | 0.00 | 34 | 1010.9 |
| 20260503205238 | 76 | 348 | 4.3 | 11.3 | 0.00 | 0.00 | 0.00 | 32 | 1010.9 |
| 20260503204721 | 76 | 24 | 2.6 | 9.6 | 0.00 | 0.00 | 0.00 | 34 | 1010.9 |
| 20260503204608 | 75 | 5 | 4.3 | 9.6 | 0.00 | 0.00 | 0.00 | 33 | 1010.1 |
| 20260503204256 | 75 | 303 | 6.1 | 9.6 | 0.00 | 0.00 | 0.00 | 32 | 1011.0 |
| 20260503203742 | 75 | 279 | 4.3 | 9.6 | 0.00 | 0.00 | 0.00 | 37 | 1011.2 |
| 20260503203223 | 76 | 317 | 4.3 | 9.6 | 0.00 | 0.00 | 0.00 | 32 | 1011.0 |
| 20260503203040 | 75 | 360 | 1.7 | 9.6 | 0.00 | 0.00 | 0.00 | 33 | 1010.4 |
| 20260503202735 | 75 | 44 | 1.7 | 11.3 | 0.00 | 0.00 | 0.00 | 31 | 1011.2 |
| 20260503202248 | 76 | 277 | 7.0 | 11.3 | 0.00 | 0.00 | 0.00 | 33 | 1011.4 |
| 20260503201731 | 76 | 334 | 7.8 | 13.0 | 0.00 | 0.00 | 0.00 | 31 | 1011.4 |
| 20260503201544 | 76 | 355 | 6.1 | 13.0 | 0.00 | 0.00 | 0.00 | 35 | 1010.6 |
| 20260503201244 | 76 | 360 | 7.8 | 13.0 | 0.00 | 0.00 | 0.00 | 31 | 1011.3 |
| 20260503200723 | 76 | 337 | 7.0 | 12.2 | 0.00 | 0.00 | 0.00 | 31 | 1011.6 |
| 20260503200234 | 75 | 346 | 6.1 | 12.2 | 0.00 | 0.00 | 0.00 | 34 | 1011.5 |
| 20260503200046 | 74 | 346 | 8.7 | 12.2 | 0.00 | 0.00 | 0.00 | 32 | 1010.8 |
| 20260503195742 | 75 | 317 | 6.1 | 11.3 | 0.00 | 0.00 | 0.00 | 34 | 1011.5 |
| 20260503195224 | 74 | 323 | 7.8 | 17.4 | 0.00 | 0.00 | 0.00 | 32 | 1011.6 |
| 20260503194737 | 76 | 355 | 10.4 | 17.4 | 0.00 | 0.00 | 0.00 | 30 | 1011.6 |
| 20260503194608 | 75 | 42 | 7.0 | 17.4 | 0.00 | 0.00 | 0.00 | 33 | 1010.7 |
| 20260503194251 | 76 | 337 | 13.0 | 17.4 | 0.00 | 0.00 | 0.00 | 32 | 1011.6 |
| 20260503193735 | 76 | 360 | 2.6 | 15.6 | 0.00 | 0.00 | 0.00 | 31 | 1011.6 |
| 20260503193248 | 77 | 319 | 7.0 | 15.6 | 0.00 | 0.00 | 0.00 | 32 | 1011.7 |
| 20260503193053 | 76 | 302 | 9.6 | 15.6 | 0.00 | 0.00 | 0.00 | 34 | 1010.9 |
| 20260503192732 | 77 | 336 | 10.4 | 16.5 | 0.00 | 0.00 | 0.00 | 32 | 1011.7 |
| 20260503192221 | 76 | 15 | 12.2 | 16.5 | 0.00 | 0.00 | 0.00 | 32 | 1011.7 |
| 20260503191747 | 76 | 333 | 10.4 | 16.5 | 0.00 | 0.00 | 0.00 | 32 | 1011.7 |
| 20260503191535 | 76 | 322 | 12.2 | 16.5 | 0.00 | 0.00 | 0.00 | 30 | 1010.9 |
| 20260503191232 | 77 | 323 | 9.6 | 14.8 | 0.00 | 0.00 | 0.00 | 34 | 1011.6 |
| 20260503190743 | 76 | 14 | 11.3 | 16.5 | 0.00 | 0.00 | 0.00 | 31 | 1011.7 |
| 20260503190226 | 76 | 5 | 7.0 | 16.5 | 0.00 | 0.00 | 0.00 | 32 | 1011.7 |
| 20260503190046 | 75 | 14 | 9.6 | 16.5 | 0.00 | 0.00 | 0.00 | 32 | 1011.0 |
| 20260503185739 | 76 | 340 | 10.4 | 15.6 | 0.00 | 0.00 | 0.00 | 31 | 1011.9 |
| 20260503185248 | 76 | 355 | 8.7 | 13.9 | 0.00 | 0.00 | 0.00 | 33 | 1011.7 |
| 20260503184739 | 75 | 15 | 7.8 | 15.6 | 0.00 | 0.00 | 0.00 | 32 | 1011.8 |
| 20260503184529 | 75 | 355 | 8.7 | 15.6 | 0.00 | 0.00 | 0.00 | 33 | 1011.1 |
| 20260503184223 | 75 | 5 | 10.4 | 16.5 | 0.00 | 0.00 | 0.00 | 32 | 1011.9 |
| 20260503183730 | 75 | 344 | 12.2 | 16.5 | 0.00 | 0.00 | 0.00 | 32 | 1011.9 |
| 20260503183239 | 76 | 317 | 7.8 | 14.8 | 0.00 | 0.00 | 0.00 | 33 | 1011.8 |
| 20260503183025 | 75 | 355 | 3.5 | 14.8 | 0.00 | 0.00 | 0.00 | 35 | 1011.2 |
| 20260503182724 | 75 | 355 | 7.0 | 14.8 | 0.00 | 0.00 | 0.00 | 33 | 1011.9 |
| 20260503182235 | 75 | 21 | 7.0 | 15.6 | 0.00 | 0.00 | 0.00 | 32 | 1012.2 |
| 20260503181745 | 74 | 330 | 12.2 | 16.5 | 0.00 | 0.00 | 0.00 | 32 | 1012.2 |
| 20260503181532 | 73 | 19 | 10.4 | 16.5 | 0.00 | 0.00 | 0.00 | 34 | 1011.4 |
| 20260503181229 | 74 | 11 | 12.2 | 16.5 | 0.00 | 0.00 | 0.00 | 33 | 1012.2 |
| 20260503180739 | 72 | 5 | 9.6 | 16.5 | 0.00 | 0.00 | 0.00 | 32 | 1012.3 |
| 20260503180223 | 72 | 11 | 6.1 | 18.2 | 0.00 | 0.00 | 0.00 | 33 | 1012.3 |
| 20260503180051 | 72 | 339 | 8.7 | 18.2 | 0.00 | 0.00 | 0.00 | 30 | 1011.6 |
| 20260503175733 | 74 | 360 | 14.8 | 18.2 | 0.00 | 0.00 | 0.00 | 31 | 1012.4 |
| 20260503175244 | 74 | 15 | 12.2 | 16.5 | 0.00 | 0.00 | 0.00 | 34 | 1012.3 |
| 20260503174727 | 73 | 22 | 7.8 | 19.1 | 0.00 | 0.00 | 0.00 | 32 | 1012.4 |
| 20260503174551 | 73 | 5 | 7.8 | 19.1 | 0.00 | 0.00 | 0.00 | 31 | 1011.8 |
| 20260503174240 | 73 | 333 | 11.3 | 19.1 | 0.00 | 0.00 | 0.00 | 35 | 1012.6 |
| 20260503173721 | 73 | 336 | 10.4 | 18.2 | 0.00 | 0.00 | 0.00 | 33 | 1012.5 |
| 20260503173231 | 73 | 355 | 7.8 | 14.8 | 0.00 | 0.00 | 0.00 | 32 | 1012.6 |
| 20260503173147 | 73 | 305 | 7.0 | 14.8 | 0.00 | 0.00 | 0.00 | 35 | 1011.9 |
| 20260503172743 | 73 | 360 | 10.4 | 14.8 | 0.00 | 0.00 | 0.00 | 33 | 1012.6 |
| 20260503172227 | 72 | 329 | 9.6 | 13.0 | 0.00 | 0.00 | 0.00 | 35 | 1012.6 |
| 20260503171736 | 72 | 335 | 7.0 | 11.3 | 0.00 | 0.00 | 0.00 | 37 | 1012.6 |
| 20260503171600 | 72 | 5 | 7.0 | 11.3 | 0.00 | 0.00 | 0.00 | 35 | 1011.9 |
| 20260503171502 | 73 | 355 | 5.2 | 13.9 | 0.00 | 0.00 | 0.00 | 34 | 1011.9 |
| 20260503171250 | 74 | 12 | 6.1 | 13.9 | 0.00 | 0.00 | 0.00 | 36 | 1012.7 |
| 20260503170729 | 73 | 317 | 8.7 | 13.9 | 0.00 | 0.00 | 0.00 | 37 | 1012.7 |
| 20260503170240 | 72 | 355 | 7.0 | 13.0 | 0.00 | 0.00 | 0.00 | 40 | 1012.6 |
| 20260503150747 | 66 | 303 | 6.1 | 12.2 | 0.00 | 0.00 | 0.00 | 47 | 1012.5 |
| 20260503150232 | 66 | 325 | 7.0 | 12.2 | 0.00 | 0.00 | 0.00 | 45 | 1012.5 |
| 20260503140223 | 62 | 260 | 10.4 | 15.6 | 0.00 | 0.00 | 0.00 | 47 | 1012.1 |
| 20260503131247 | 58 | 198 | 10.4 | 20.0 | 0.00 | 0.00 | 0.00 | 52 | 1011.9 |
| 20260503130747 | 58 | 259 | 13.0 | 20.0 | 0.00 | 0.00 | 0.00 | 52 | 1012.0 |
| 20260503130231 | 57 | 246 | 12.2 | 19.1 | 0.00 | 0.00 | 0.00 | 52 | 1012.0 |
| 20260503130113 | 57 | 205 | 11.3 | 19.1 | 0.00 | 0.00 | 0.00 | 52 | 1011.5 |
| 20260503110810 | 53 | 237 | 5.2 | 8.7 | 0.00 | 0.00 | 0.00 | 51 | 1011.4 |
| 20260503110227 | 54 | 272 | 5.2 | 10.4 | 0.00 | 0.00 | 0.00 | 50 | 1011.3 |
| 20260503090229 | 54 | 223 | 8.7 | 13.9 | 0.00 | 0.00 | 0.00 | 50 | 1011.3 |
| 20260503081535 | 51 | 197 | 5.2 | 8.7 | 0.00 | 0.00 | 0.00 | 53 | 1011.7 |
| 20260503081230 | 51 | 188 | 6.1 | 9.6 | 0.00 | 0.00 | 0.00 | 53 | 1011.9 |
| 20260503080741 | 51 | 205 | 7.0 | 9.6 | 0.00 | 0.00 | 0.00 | 53 | 1011.9 |
| 20260503080224 | 52 | 173 | 6.1 | 9.6 | 0.00 | 0.00 | 0.00 | 52 | 1011.9 |
| 20260503072805 | 52 | 186 | 6.1 | 10.4 | 0.00 | 0.00 | 0.00 | 51 | 1012.1 |